Location: Pinhead Observatory
(34.4473°N, 118.1985°W)
Time: 10:49:20
(UTC-07:00)

CZ-4C R/B - Visible Passes

Search period start: 23 April 2017 00:00
Search period end: 03 May 2017 00:00
Orbit: 720 x 1283 km, 63.4° (Epoch: 21 April)

Date Brightness Start Highest point End Pass type
(mag) Time Alt. Az. Time Alt. Az. Time Alt. Az.
23 Apr 4.1 00:39:06 10° NNW 00:42:52 35° NNW 00:42:52 35° NNW visible
23 Apr 4.0 23:24:35 10° NNW 23:30:05 35° NNE 23:30:05 35° NNE visible
24 Apr 4.6 01:12:53 10° NW 01:15:15 22° NW 01:15:15 22° NW visible
24 Apr 4.7 22:10:59 10° N 22:15:20 17° NE 22:17:19 15° ENE visible
24 Apr 3.7 23:57:43 10° NNW 00:02:30 45° NNW 00:02:30 45° NNW visible
25 Apr 5.2 01:47:38 10° WNW 01:47:40 10° WNW 01:47:40 10° WNW visible
25 Apr 4.0 22:43:21 10° NNW 22:49:39 31° NE 22:49:47 31° NE visible
26 Apr 4.2 00:31:20 10° NW 00:34:58 32° NW 00:34:58 32° NW visible
26 Apr 4.8 21:30:06 10° N 21:33:39 14° NE 21:37:06 10° ENE visible
26 Apr 3.4 23:16:21 10° NNW 23:22:17 53° NNE 23:22:17 53° NNE visible
27 Apr 4.9 01:05:45 10° NW 01:07:28 16° WNW 01:07:28 16° WNW visible
27 Apr 4.1 22:02:10 10° N 22:08:05 26° NE 22:09:38 25° ENE visible
27 Apr 3.7 23:49:50 10° NW 23:54:49 47° NW 23:54:49 47° NW visible
28 Apr 4.9 20:49:28 10° NNE 20:51:55 12° NE 20:54:26 10° NE visible
28 Apr 3.3 22:35:01 10° NNW 22:42:06 51° NE 22:42:13 51° ENE visible
29 Apr 4.5 00:23:59 10° NW 00:27:24 25° WNW 00:27:24 25° WNW visible
29 Apr 4.3 21:21:00 10° N 21:26:29 23° NE 21:29:39 18° ENE visible
29 Apr 3.0 23:08:23 10° NNW 23:14:50 71° NW 23:14:50 71° NW visible
30 Apr 5.2 00:59:48 10° WNW 01:00:01 10° WNW 01:00:01 10° WNW visible
30 Apr 3.5 21:53:44 10° NNW 22:00:35 43° NE 22:02:18 38° E visible
30 Apr 3.9 23:42:20 10° NW 23:47:30 37° W 23:47:30 37° W visible
01 May 4.5 20:39:55 10° N 20:44:50 19° NE 20:49:49 11° E visible
01 May 2.8 22:26:58 10° NNW 22:34:22 83° ENE 22:35:01 76° ESE visible
02 May 4.9 00:17:28 10° WNW 00:20:13 17° W 00:20:13 17° W visible
02 May 3.7 21:12:29 10° NNW 21:19:04 36° NE 21:22:35 25° E visible
02 May 3.4 23:00:44 10° NW 23:07:47 50° WSW 23:07:47 50° WSW visible
